EW9290 Weather Reports


Display with metric or nautical units.
time (UTC)temp
F
wind
direction
speed
MPH
gust
MPH
rain 1hr
in
rain 24hr
in
rain mn
in
humidity
%
barometer
mb
20190424231611 56 328 5.0 8.0 0.00 0.00 0.00 63 1016.8
20190424230711 56 345 7.0 11.0 0.00 0.00 0.00 62 1017.0
20190424225811 57 337 7.0 13.0 0.00 0.00 0.00 60 1017.3
20190424224911 58 329 7.0 10.0 0.00 0.00 0.00 58 1017.6
20190424224011 58 342 6.0 10.0 0.00 0.00 0.00 57 1017.8
20190424223111 58 334 8.0 15.0 0.00 0.00 0.00 59 1018.0
20190424222211 59 340 8.0 15.0 0.00 0.00 0.00 55 1017.9
20190424221311 59 347 8.0 10.0 0.00 0.00 0.00 54 1017.6
20190424220411 59 327 7.0 10.0 0.00 0.00 0.00 55 1017.5
20190424215511 60 328 5.0 8.0 0.00 0.00 0.00 53 1017.3
20190424214611 60 331 7.0 10.0 0.00 0.00 0.00 52 1017.3
20190424213711 62 309 5.0 10.0 0.00 0.00 0.00 50 1017.1
20190424212811 62 331 6.0 10.0 0.00 0.00 0.00 49 1017.0
20190424211911 61 1 6.0 10.0 0.00 0.00 0.00 51 1017.4
20190424211011 61 333 9.0 15.0 0.00 0.00 0.00 47 1017.4
20190424210111 63 336 6.0 11.0 0.00 0.00 0.00 46 1017.4
20190424205211 64 306 5.0 9.0 0.00 0.00 0.00 50 1017.5
20190424204311 61 332 6.0 11.0 0.00 0.00 0.00 54 1017.7
20190424203411 61 344 6.0 11.0 0.00 0.00 0.00 48 1017.7
20190424202511 62 356 7.0 11.0 0.00 0.00 0.00 48 1017.7
20190424201611 63 311 4.0 8.0 0.00 0.00 0.00 47 1017.7
20190424200711 63 324 5.0 8.0 0.00 0.00 0.00 50 1018.2
20190424195811 62 333 7.0 10.0 0.00 0.00 0.00 49 1018.3
20190424194911 61 329 10.0 15.0 0.00 0.00 0.00 47 1018.3
20190424194011 64 298 5.0 13.0 0.00 0.00 0.00 46 1018.5
20190424193111 63 276 5.0 9.0 0.00 0.00 0.00 48 1018.5
20190424192210 62 342 6.0 10.0 0.00 0.00 0.00 51 1019.0
20190424191310 62 313 3.0 7.0 0.00 0.00 0.00 48 1019.1
20190424190410 61 318 7.0 10.0 0.00 0.00 0.00 47 1019.1
20190424185511 62 330 5.0 10.0 0.00 0.00 0.00 47 1019.2
20190424184611 62 313 6.0 11.0 0.00 0.00 0.00 48 1019.6
20190424183711 61 331 8.0 13.0 0.00 0.00 0.00 51 1019.8
20190424182811 62 318 5.0 9.0 0.00 0.00 0.00 52 1019.5
20190424181911 60 307 5.0 13.0 0.00 0.00 0.00 52 1019.7
20190424181011 60 4 8.0 13.0 0.00 0.00 0.00 52 1019.5
20190424180141 60 320 5.0 9.0 0.00 0.00 0.00 52 1019.9
20190424175211 60 315 6.0 9.0 0.00 0.00 0.00 53 1020.0
20190424174311 60 352 7.0 10.0 0.00 0.00 0.00 54 1020.0
20190424173410 60 342 9.0 15.0 0.00 0.00 0.00 54 1020.1
20190424172511 60 320 6.0 10.0 0.00 0.00 0.00 52 1020.3
20190424171611 61 343 7.0 13.0 0.00 0.00 0.00 52 1020.2
20190424170710 61 337 7.0 13.0 0.00 0.00 0.00 53 1020.3
20190424165810 62 307 5.0 7.0 0.00 0.00 0.00 52 1020.4
20190424164910 62 283 7.0 9.0 0.00 0.00 0.00 52 1020.5
20190424164011 61 325 6.0 9.0 0.00 0.00 0.00 51 1020.5
20190424163110 61 284 4.0 15.0 0.00 0.00 0.00 56 1020.7
20190424162212 60 328 7.0 16.0 0.00 0.00 0.00 54 1020.6
20190424161310 60 323 7.0 15.0 0.00 0.00 0.00 56 1020.7
20190424160410 60 337 7.0 11.0 0.00 0.00 0.00 58 1020.8
20190424155510 59 323 7.0 10.0 0.00 0.00 0.00 60 1020.9
20190424154610 59 324 5.0 10.0 0.00 0.00 0.00 59 1020.9
20190424153710 58 341 8.0 17.0 0.00 0.00 0.00 62 1021.1
20190424152810 60 299 3.0 7.0 0.00 0.00 0.00 64 1021.1
20190424151910 58 255 5.0 9.0 0.00 0.00 0.00 61 1021.3
20190424151011 59 315 5.0 9.0 0.00 0.00 0.00 61 1021.2
20190424150110 58 347 6.0 9.0 0.00 0.00 0.00 61 1021.3
20190424145211 59 266 3.0 7.0 0.00 0.00 0.00 62 1021.4
20190424144310 58 333 4.0 9.0 0.00 0.00 0.00 67 1021.2
20190424143410 55 353 8.0 10.0 0.00 0.00 0.00 68 1021.4
20190424142510 54 334 7.0 11.0 0.00 0.00 0.00 70 1021.3
20190424141610 54 9 7.0 13.0 0.00 0.00 0.00 69 1021.2
20190424140710 53 328 7.0 16.0 0.00 0.00 0.00 71 1021.1
20190424135810 53 328 6.0 15.0 0.00 0.00 0.00 72 1021.2
20190424134910 52 307 4.0 7.0 0.00 0.00 0.00 75 1021.1
20190424134010 53 315 4.0 7.0 0.00 0.00 0.00 72 1021.3
20190424133111 54 326 5.0 7.0 0.00 0.00 0.00 74 1021.0
20190424132211 52 348 6.0 10.0 0.00 0.00 0.00 77 1021.3
20190424131310 50 318 4.0 8.0 0.00 0.00 0.00 81 1021.2
20190424130410 51 322 4.0 6.0 0.00 0.00 0.00 83 1021.3
20190424125510 50 268 2.0 6.0 0.00 0.00 0.00 85 1021.7
20190424124610 49 316 3.0 3.0 0.00 0.00 0.00 88 1021.7
20190424123710 49 327 4.0 7.0 0.00 0.00 0.00 89 1021.5
20190424122810 49 339 4.0 7.0 0.00 0.00 0.00 92 1021.5
20190424121910 49 338 2.0 3.0 0.00 0.00 0.00 99 1021.4
20190424121010 48 342 1.0 2.0 0.00 0.00 0.00 99 1021.4
20190424120110 45 350 1.0 2.0 0.00 0.00 0.00 99 1021.2
20190424115210 42 321 1.0 1.0 0.00 0.00 0.00 99 1021.1
20190424094611 40 46 0.0 1.0 0.00 0.00 0.00 99 1019.7
20190424093710 40 0 0.0 0.0 0.00 0.00 0.00 99 1019.5
20190424092811 41 0 0.0 0.0 0.00 0.00 0.00 99 1019.5
20190424091910 41 0 0.0 0.0 0.00 0.00 0.00 99 1019.5
20190424091010 42 0 0.0 0.0 0.00 0.00 0.00 99 1019.8
20190424090110 42 0 0.0 0.0 0.00 0.00 0.00 99 1019.6
20190424085210 42 0 0.0 0.0 0.00 0.00 0.00 99 1019.5
20190424084310 42 0 0.0 0.0 0.00 0.00 0.00 99 1019.6
20190424083410 43 0 0.0 0.0 0.00 0.00 0.00 99 1019.6
20190424082510 43 0 0.0 0.0 0.00 0.00 0.00 98 1019.6
20190424081610 44 347 1.0 2.0 0.00 0.00 0.00 97 1019.6
20190424080710 45 355 2.0 2.0 0.00 0.00 0.00 96 1019.5
20190424075810 45 342 3.0 7.0 0.00 0.00 0.00 97 1019.5
20190424074910 45 343 5.0 9.0 0.00 0.00 0.00 96 1019.5
20190424074010 46 347 5.0 9.0 0.00 0.00 0.00 96 1019.1
20190424073110 46 350 8.0 11.0 0.00 0.00 0.00 95 1019.4
20190424072210 46 349 8.0 11.0 0.00 0.00 0.00 94 1019.2
20190424071310 47 327 5.0 8.0 0.00 0.00 0.00 93 1018.9
20190424070410 47 336 4.0 8.0 0.00 0.00 0.00 92 1019.1
20190424065510 47 334 5.0 9.0 0.00 0.00 0.00 92 1018.8
20190424064610 47 337 4.0 7.0 0.00 0.00 0.00 92 1018.8
20190424063710 47 340 4.0 6.0 0.00 0.00 0.00 92 1018.9
20190424062810 47 330 2.0 3.0 0.00 0.00 0.00 93 1018.6
20190424061910 47 339 3.0 3.0 0.00 0.00 0.00 94 1018.9
20190424061110 47 337 0.0 2.0 0.00 0.00 0.00 94 1018.7